Volver al catálogo

STARLINK-38062

ActivoComunicacionesSSO
NORAD 100117·PAYLOAD·🇺🇸 United States

Lanzado Jul 21, 2026 desde Vandenberg Space Force Base

Loading…

Próximos Pases (próximas 24 horas)

TLE

ActualizadoSource: Space-Track

Época: Sep 13, 2026, 23:58 UTC

1 A0117U 26166S   26256.99903716  .00173044  00000-0  11343-2 0  9998
2 A0117  97.2856 275.0835 0001196  79.4838 280.6562 15.75258543  8589

Sigue STARLINK-38062 en tiempo real con AllMySat

Download on the App Store